Change the Weather History Date:

Sunday, November 11, 2012

  Actual Average (KTOL) Record (KTOL)
Temperature  
Mean Temperature 61 °F 44 °F  
Max Temperature 68 °F 52 °F 73 °F (1927)
Min Temperature 54 °F 35 °F 19 °F (1960)
Degree Days  
Heating Degree Days 4 22  
Month to date heating degree days 217  
Since 1 July heating degree days 743  
Cooling Degree Days 0 0  
Month to date cooling degree days 0  
Year to date cooling degree days 793  
Growing Degree Days 11 (Base 50)    
Moisture  
Dew Point 39 °F    
Average Humidity 45    
Maximum Humidity 60    
Minimum Humidity 32    
Precipitation  
Precipitation 0.00 in 0.09 in 0.82 in (1984)
Month to date precipitation 0.98  
Year to date precipitation 29.68  
Snow  
Snow 0.00 in 0.10 in - ()
Month to date snowfall 0.4  
Since 1 July snowfall 0.6  
Since 1 September snowfall 0.6  
Snow Depth -    
Sea Level Pressure  
Sea Level Pressure 30.08 in    
Wind  
Wind Speed 11 mph (South)    
Max Wind Speed 20 mph    
Max Gust Speed 29 mph    
Visibility 10 miles    
Events      
T = Trace of Precipitation, MM = Missing Value Source: NWS Daily Summary

Daily Weather History Graph

Daily Weather History Graph

Search for Another Location

Airport or City:

Trip Planner

Search our weather history database for the weather conditions in past years. The results will help you decide how hot, cold, wet, or windy it might be!

Date:

Astronomy

Nov. 11, 2012 Rise Set
Actual Time 7:19 AM EST 5:17 PM EST
Civil Twilight 6:49 AM EST 5:46 PM EST
Nautical Twilight 6:16 AM EST 6:20 PM EST
Astronomical Twilight 5:43 AM EST 6:53 PM EST
Moon 4:30 AM EST (11/11) 3:41 PM EST (11/11)
Length of Visible Light 10h 57m
Length of Day
9h 57m
Waning Crescent, 7% of the Moon is Illuminated
Nov 11
Waning Crescent
Nov 13
New
Nov 20
First Quarter
Nov 28
Full
Dec 6
Last Quarter

Hourly Weather History & Observations

Time (EST) Temp. Dew Point Humidity Pressure Visibility Wind Dir Wind Speed Gust Speed Precip Events Conditions
12:15 AM 59.2 °F 43.7 °F 57% 30.08 in 10.0 mi SSW 9.2 mph - N/A   Clear
12:35 AM 60.6 °F 43.0 °F 52% 30.08 in 10.0 mi SSW 10.4 mph 17.3 mph N/A   Clear
12:55 AM 60.3 °F 42.6 °F 52% 30.09 in 10.0 mi SSW 8.1 mph - N/A   Clear
1:15 AM 60.8 °F 41.9 °F 50% 30.09 in 10.0 mi SSW 9.2 mph - N/A   Clear
1:35 AM 60.8 °F 41.9 °F 50% 30.09 in 10.0 mi South 11.5 mph 17.3 mph N/A   Clear
1:55 AM 60.3 °F 41.9 °F 51% 30.09 in 10.0 mi SSW 10.4 mph - N/A   Clear
2:15 AM 59.9 °F 41.9 °F 51% 30.10 in 10.0 mi SSW 10.4 mph - N/A   Clear
2:35 AM 59.4 °F 41.5 °F 52% 30.10 in 10.0 mi SSW 8.1 mph 16.1 mph N/A   Clear
2:55 AM 59.4 °F 41.4 °F 51% 30.10 in 10.0 mi SSW 8.1 mph - N/A   Clear
3:15 AM 59.2 °F 41.5 °F 52% 30.10 in 10.0 mi SSW 10.4 mph 18.4 mph N/A   Clear
3:35 AM 59.2 °F 41.4 °F 52% 30.11 in 10.0 mi SW 9.2 mph 19.6 mph N/A   Clear
3:55 AM 58.3 °F 41.4 °F 53% 30.11 in 10.0 mi SSW 9.2 mph 16.1 mph N/A   Clear
4:15 AM 57.6 °F 41.2 °F 54% 30.12 in 10.0 mi South 8.1 mph - N/A   Clear
4:35 AM 57.0 °F 41.2 °F 55% 30.12 in 10.0 mi SSW 8.1 mph - N/A   Clear
4:55 AM 57.0 °F 41.0 °F 55% 30.13 in 10.0 mi South 6.9 mph - N/A   Clear
5:15 AM 56.7 °F 41.0 °F 56% 30.14 in 10.0 mi SSW 6.9 mph - N/A   Clear
5:34 AM 56.5 °F 40.8 °F 56% 30.14 in 10.0 mi South 8.1 mph 16.1 mph N/A   Clear
6:35 AM 54.5 °F 40.6 °F 60% 30.15 in 10.0 mi South 9.2 mph - N/A   Clear
6:55 AM 54.5 °F 40.5 °F 59% 30.15 in 10.0 mi SSW 8.1 mph 17.3 mph N/A   Clear
7:15 AM 54.7 °F 40.3 °F 58% 30.15 in 10.0 mi SSW 10.4 mph - N/A   Clear
7:55 AM 54.7 °F 40.1 °F 58% 30.16 in 10.0 mi SSW 10.4 mph 17.3 mph N/A   Clear
8:35 AM 56.3 °F 39.6 °F 53% 30.16 in 10.0 mi SSW 13.8 mph 21.9 mph N/A   Clear
8:55 AM 57.9 °F 39.6 °F 50% 30.15 in 10.0 mi SSW 10.4 mph 18.4 mph N/A   Clear
9:15 AM 59.0 °F 39.6 °F 49% 30.16 in 10.0 mi SSW 12.7 mph 21.9 mph N/A   Clear
9:35 AM 59.0 °F 39.7 °F 49% 30.16 in 10.0 mi SSW 15.0 mph 21.9 mph N/A   Clear
9:55 AM 59.5 °F 40.3 °F 49% 30.16 in 10.0 mi SSW 12.7 mph 19.6 mph N/A   Clear
10:15 AM 60.4 °F 40.8 °F 48% 30.16 in 10.0 mi SSW 12.7 mph 20.7 mph N/A   Clear
10:35 AM 60.3 °F 41.4 °F 50% 30.16 in 10.0 mi SSW 12.7 mph 20.7 mph N/A   Clear
10:55 AM 60.8 °F 41.9 °F 50% 30.16 in 10.0 mi South 15.0 mph 24.2 mph N/A   Clear
11:15 AM 63.1 °F 43.0 °F 48% 30.16 in 10.0 mi SSW 13.8 mph 21.9 mph N/A   Clear
11:35 AM 63.7 °F 43.3 °F 48% 30.15 in 10.0 mi SSW 12.7 mph 23.0 mph N/A   Scattered Clouds
11:55 AM 64.4 °F 43.9 °F 47% 30.14 in 10.0 mi SSW 13.8 mph 19.6 mph N/A   Scattered Clouds
12:15 PM 66.6 °F 44.8 °F 45% 30.13 in 10.0 mi SSW 13.8 mph 17.3 mph N/A   Clear
12:35 PM 67.6 °F 44.8 °F 44% 30.11 in 10.0 mi South 18.4 mph 24.2 mph N/A   Scattered Clouds
1:15 PM 67.5 °F 45.0 °F 44% 30.09 in 10.0 mi South 13.8 mph 26.5 mph N/A   Clear
1:34 PM 67.5 °F 44.8 °F 44% 30.09 in 10.0 mi SSW 19.6 mph 28.8 mph N/A   Clear
1:55 PM 68.2 °F 44.1 °F 42% 30.09 in 10.0 mi SSW 15.0 mph 25.3 mph N/A   Clear
2:15 PM 67.5 °F 41.2 °F 38% 30.08 in 10.0 mi SSW 16.1 mph 26.5 mph N/A   Clear
2:35 PM 67.3 °F 39.7 °F 36% 30.08 in 10.0 mi South 16.1 mph 21.9 mph N/A   Clear
2:55 PM 67.1 °F 39.6 °F 36% 30.07 in 10.0 mi South 17.3 mph 25.3 mph N/A   Clear
3:15 PM 68.0 °F 38.7 °F 34% 30.06 in 10.0 mi SSW 19.6 mph 27.6 mph N/A   Clear
3:35 PM 68.0 °F 38.7 °F 34% 30.06 in 10.0 mi South 9.2 mph 19.6 mph N/A   Clear
3:55 PM 67.6 °F 37.2 °F 33% 30.06 in 10.0 mi South 17.3 mph 28.8 mph N/A   Clear
4:15 PM 67.3 °F 36.7 °F 32% 30.06 in 10.0 mi South 10.4 mph 24.2 mph N/A   Clear
4:35 PM 66.4 °F 36.5 °F 33% 30.06 in 10.0 mi South 12.7 mph 19.6 mph N/A   Clear
4:55 PM 65.7 °F 36.5 °F 34% 30.06 in 10.0 mi South 12.7 mph 19.6 mph N/A   Clear
5:15 PM 64.9 °F 37.4 °F 36% 30.06 in 10.0 mi South 12.7 mph 25.3 mph N/A   Clear
5:35 PM 64.0 °F 38.5 °F 39% 30.06 in 10.0 mi South 9.2 mph 20.7 mph N/A   Clear
5:55 PM 63.3 °F 36.3 °F 37% 30.05 in 10.0 mi South 10.4 mph 19.6 mph N/A   Scattered Clouds
6:15 PM 62.8 °F 34.2 °F 34% 30.04 in 10.0 mi South 6.9 mph 17.3 mph N/A   Clear
6:35 PM 62.2 °F 34.0 °F 35% 30.04 in 10.0 mi South 11.5 mph 17.3 mph N/A   Clear
6:55 PM 61.9 °F 34.3 °F 36% 30.04 in 10.0 mi South 10.4 mph 18.4 mph N/A   Clear
7:15 PM 61.7 °F 34.7 °F 36% 30.04 in 10.0 mi SSE 11.5 mph 20.7 mph N/A   Clear
7:35 PM 61.2 °F 35.2 °F 38% 30.03 in 10.0 mi SSE 12.7 mph 21.9 mph N/A   Clear
7:55 PM 61.0 °F 35.6 °F 39% 30.03 in 10.0 mi SSE 11.5 mph 19.6 mph N/A   Clear
8:15 PM 61.0 °F 35.1 °F 38% 30.02 in 10.0 mi South 12.7 mph 23.0 mph N/A   Clear
8:35 PM 61.0 °F 34.7 °F 37% 30.01 in 10.0 mi South 10.4 mph 24.2 mph N/A   Clear
8:55 PM 61.0 °F 34.7 °F 37% 30.01 in 10.0 mi South 12.7 mph 19.6 mph N/A   Clear
9:15 PM 60.6 °F 34.5 °F 38% 30.02 in 10.0 mi South 9.2 mph 16.1 mph N/A   Clear
9:35 PM 61.0 °F 34.0 °F 36% 30.02 in 10.0 mi South 10.4 mph 17.3 mph N/A   Clear
9:55 PM 62.6 °F 33.1 °F 33% 30.01 in 10.0 mi South 13.8 mph 24.2 mph N/A   Clear
10:14 PM 62.6 °F 33.1 °F 33% 30.01 in 10.0 mi South 9.2 mph 17.3 mph N/A   Clear
10:35 PM 61.9 °F 33.1 °F 34% 30.00 in 10.0 mi South 6.9 mph 16.1 mph N/A   Clear
10:55 PM 60.6 °F 33.8 °F 37% 30.00 in 10.0 mi South 9.2 mph - N/A   Clear
11:15 PM 59.0 °F 34.7 °F 40% 30.00 in 10.0 mi SSE 6.9 mph - N/A   Clear
11:35 PM 58.1 °F 34.9 °F 42% 29.99 in 10.0 mi SSE 5.8 mph - N/A   Clear
11:55 PM 57.6 °F 35.6 °F 44% 29.99 in 10.0 mi SSE 9.2 mph - N/A   Clear